Location: *
(34.8620°S, 39.3380°E)
Time: 11:00:34
(UTC+00:00)

YAOGAN 1 - Pass Details

Date: 08 December 2021
Orbit: 618 x 620 km, 97.9° (Epoch: 19 January)

Event Time Altitude Azimuth Distance (km) Brightness Sun altitude
Rises 18:16:18 0° 192° (SSW) 2,929 7.0 -18.5°
Reaches altitude 10° 18:19:42 10° 221° (SW) 2,012 6.4 -19.0°
Maximum altitude 18:21:33 13° 246° (WSW) 1,840 5.9 -19.2°
Drops below altitude 10° 18:23:24 10° 271° (W) 2,002 5.7 -19.5°
Sets 18:26:47 0° 300° (WNW) 2,897 6.1 -19.9°
